Location: Malvern Link
(52.1333°N, 2.3000°W)
Time: 11:55:35
(UTC+00:00)

Envisat - Pass Details

Date: 22 January 2022
Orbit: 764 x 765 km, 98.2° (Epoch: 22 May)

Event Time Altitude Azimuth Distance (km) Brightness Sun altitude
Rises 05:04:03 0° 16° (NNE) 3,244 6.5 -27.1°
Reaches altitude 10° 05:06:23 10° 18° (NNE) 2,313 5.7 -26.7°
Maximum altitude 05:11:28 70° 102° (ESE) 817 3.2 -26.0°
Drops below altitude 10° 05:16:32 10° 187° (S) 2,297 5.4 -25.2°
Sets 05:18:50 0° 190° (S) 3,219 6.1 -24.8°
